Showing default

GJZ 02, 62291

Orbit data source: Space-Track

GJZ 02, 62291 is a payload satellite owned by CASC (CN) in LEO that was launched on Thu, 12 Dec 2024 UTC via a CHANG ZHENG 2D/YZ-3 launch vehicle from the Jiuquan Satellite Launch Center, China (JSC). Payload-class satellites include a variety of spacecraft equipped with specific instruments for various scientific and technological missions. These include communications satellites like Starlink; space stations such as the ISS; scientific satellites like the Hubble; Earth observation satellites from companies like Planet Labs, Umbra, and HawkEye 360; GPS; miniature CubeSats for education and research; and military/defense satellites.

Loading next visibility...
Identifier
62291, 2024-238B
Orbit
LEO
Country
Flag of CNCN / PRC
Related business
Manufacturer
HITSAT
Mission
Operational Civil Communications
Bus & Motor
HARBFLAT, Unknown motor
Mass
~150 kg wet, ~150 kg dry
Launch date (UTC)
2024-12-12 (9 months ago)
Launch vehicle
CHANG ZHENG 2D/YZ-3
Launch site
Jiuquan Satellite Launch Center, China (JSC)
Object type
Payload
Rocket body
Debris
Shape & HBR
Box + 2 Pan, 1.5 m
Radar Cross Section
0.240 m², Large (>1 m²)

Expand to show TLE details & history
Last TLE update: 12 hours ago

TLE from 12 hours ago
0 GJZ 02
1 62291U 24238B   25258.58687194 -.00000039  00000-0  83199-4 0  9996
2 62291  59.9200   1.7834 0009332  91.2214 268.9863 13.75146984 38513
Epoch: 2025-09-15T14:05Z
TLE epoch observation values (Epoch: 2025-09-15T14:05:05.735Z)
Latitude
-0.00003°
Longitude
155.7201°
Altitude
982.764 km
Speed
7.361 km/s
True Right ascension
00h 07m 08s
True Declination
0° 00' 00"
Sunlit
Object was in full shadow at epoch
Visualization orbit readout
Latitude
Unknown
Longitude
Unknown
Altitude
Unknown
Speed
Unknown
Apparent Right ascension
Unknown
Apparent Declination
Unknown
Sunlit
N/A
Visualization observer readout
Local Sidereal Time
19:08:48
Azimuth
Unknown
Elevation
Unknown
Doppler factor
Unknown
Orbital elements
Apogee altitude
987.285 km
Perigee altitude
973.551 km
Semi-major axis
7,358.555 km
Eccentricity
0.00093
Inclination
59.92°
RAAN
1.7834°
Arg. of periapsis
91.2214°
True anomaly
268.87938°
Mean anomaly
268.9863°
Eccentric anomaly
268.93284°
Mean motion
3.43838 °/min
Orbital period
104.7 mins
BSTAR
0.000083199
Loading maneuver chart data...
Computing Atmospheric mass density...
Loading historical data...
Loading historical data...
Loading historical data...
Loading historical data...
Loading historical data...
Loading historical data...
Loading historical data...
Other satellites on launch #238 in the year 2024 (2024-12-12 UTC)

Documentation

Showing up to 5 results
|